GW0889 Weather Reports


time (UTC)temp
C
wind
direction
speed
KPH
gust
KPH
rain 1hr
cm
rain 24hr
cm
rain mn
cm
humidity
%
barometer
mb
20260508151533 18 272 6.4 17.7 0.00 0.00 0.00 45 1015.7
20260508151031 18 279 6.4 12.9 0.00 0.00 0.00 45 1015.7
20260508150532 18 311 8.0 14.5 0.00 0.00 0.00 46 1015.7
20260508150027 17 247 6.4 22.5 0.00 0.00 0.00 45 1015.8
20260508145529 17 269 8.0 22.5 0.00 0.00 0.00 45 1015.8
20260508145026 17 246 8.0 14.5 0.00 0.00 0.00 46 1015.8
20260508144524 17 217 9.7 16.1 0.00 0.00 0.00 45 1015.8
20260508144022 17 219 8.0 16.1 0.00 0.00 0.00 46 1015.8
20260508143524 17 246 8.0 17.7 0.00 0.00 0.00 47 1015.7
20260508143019 16 239 9.7 17.7 0.00 0.00 0.00 48 1015.8
20260508142518 16 235 9.7 16.1 0.00 0.00 0.00 48 1015.8
20260508142017 16 240 9.7 16.1 0.00 0.00 0.00 49 1015.9
20260508141512 16 261 6.4 14.5 0.00 0.00 0.00 51 1015.9
20260508141012 16 244 6.4 14.5 0.00 0.00 0.00 51 1015.9
20260508140510 15 226 4.8 14.5 0.00 0.00 0.00 51 1016.0
20260508140008 15 251 3.2 16.1 0.00 0.00 0.00 53 1015.9
20260508135509 15 221 8.0 16.1 0.00 0.00 0.00 53 1016.0
20260508135005 15 315 3.2 12.9 0.00 0.00 0.00 54 1016.0
20260508134505 14 271 4.8 16.1 0.00 0.00 0.00 55 1016.1
20260508134003 14 234 6.4 14.5 0.00 0.00 0.00 56 1016.1
20260508133504 13 223 4.8 17.7 0.00 0.00 0.00 58 1016.1
20260508133112 13 244 8.0 17.7 0.00 0.00 0.00 59 1016.0
20260508132558 13 259 8.0 11.3 0.00 0.00 0.00 62 1016.1
20260508132058 12 328 3.2 11.3 0.00 0.00 0.00 66 1016.1
20260508131558 11 248 3.2 11.3 0.00 0.00 0.00 68 1016.0
20260508131051 11 92 1.6 6.4 0.00 0.00 0.00 72 1016.1
20260508130549 11 86 1.6 6.4 0.00 0.00 0.00 74 1016.1
20260508130106 10 5 1.6 6.4 0.00 0.00 0.00 75 1016.2
20260508125547 10 5 1.6 6.4 0.00 0.00 0.00 76 1016.2
20260508125045 9 347 1.6 6.4 0.00 0.00 0.00 79 1016.2
20260508124543 9 323 0.0 6.4 0.00 0.00 0.00 80 1016.2
20260508124042 8 323 0.0 9.7 0.00 0.00 0.00 82 1016.3
20260508123543 8 332 3.2 9.7 0.00 0.00 0.00 84 1016.3
20260508123040 8 61 1.6 8.0 0.00 0.00 0.00 86 1016.2
20260508122538 8 291 0.0 8.0 0.00 0.00 0.00 87 1016.2
20260508122036 7 290 3.2 8.0 0.00 0.00 0.00 89 1016.2
20260508121536 7 266 0.0 0.0 0.00 0.00 0.00 89 1016.1
20260508121032 7 247 0.0 0.0 0.00 0.00 0.00 90 1016.1
20260508120529 6 246 0.0 0.0 0.00 0.00 0.00 91 1016.2
20260508120028 6 246 0.0 0.0 0.00 0.00 0.00 91 1016.2
20260508115528 6 229 0.0 0.0 0.00 0.00 0.00 92 1016.1
20260508115025 6 229 0.0 0.0 0.00 0.00 0.00 91 1016.1
20260508114524 6 229 0.0 0.0 0.00 0.00 0.00 92 1015.9
20260508114023 5 228 0.0 0.0 0.00 0.00 0.00 92 1016.0
20260508113522 5 228 0.0 0.0 0.00 0.00 0.00 92 1016.1
20260508113021 5 228 0.0 0.0 0.00 0.00 0.00 92 1016.1
20260508112518 5 228 0.0 0.0 0.00 0.00 0.00 92 1016.1
20260508112018 5 228 0.0 0.0 0.00 0.00 0.00 91 1016.0
20260508111520 5 228 0.0 0.0 0.00 0.00 0.00 92 1016.0
20260508111047 4 228 0.0 0.0 0.00 0.00 0.00 91 1015.9
20260508110543 4 228 0.0 0.0 0.00 0.00 0.00 91 1015.9
20260508110042 4 228 0.0 0.0 0.00 0.00 0.00 91 1015.9
20260508105541 4 228 0.0 0.0 0.00 0.00 0.00 91 1015.9
20260508105041 4 228 0.0 0.0 0.00 0.00 0.00 91 1015.8
20260508104603 4 228 0.0 0.0 0.00 0.00 0.00 90 1015.7
20260508104035 4 228 0.0 0.0 0.00 0.00 0.00 90 1015.6
20260508103534 4 228 0.0 0.0 0.00 0.00 0.00 90 1015.6
20260508103043 4 228 0.0 0.0 0.00 0.00 0.00 90 1015.6
20260508102533 4 228 0.0 0.0 0.00 0.00 0.00 90 1015.6
20260508102032 4 271 0.0 0.0 0.00 0.00 0.00 90 1015.5
20260508101532 4 272 0.0 0.0 0.00 0.00 0.00 90 1015.5
20260508101030 4 273 0.0 0.0 0.00 0.00 0.00 90 1015.5
20260508100530 4 273 0.0 0.0 0.00 0.00 0.00 90 1015.4
20260508100030 4 273 0.0 0.0 0.00 0.00 0.00 89 1015.4
20260508095529 4 273 0.0 0.0 0.00 0.00 0.00 89 1015.3
20260508095029 4 273 0.0 0.0 0.00 0.00 0.00 89 1015.3
20260508094528 4 273 0.0 0.0 0.00 0.00 0.00 89 1015.4
20260508094027 4 273 0.0 0.0 0.00 0.00 0.00 89 1015.3
20260508093527 4 273 0.0 0.0 0.00 0.00 0.00 88 1015.3
20260508093026 4 273 0.0 0.0 0.00 0.00 0.00 88 1015.3
20260508092526 4 273 0.0 0.0 0.00 0.00 0.00 88 1015.2
20260508092025 4 273 0.0 0.0 0.00 0.00 0.00 88 1015.3
20260508091524 4 273 0.0 0.0 0.00 0.00 0.00 87 1015.3
20260508091024 4 273 0.0 0.0 0.00 0.00 0.00 87 1015.3
20260508090523 4 273 0.0 0.0 0.00 0.00 0.00 87 1015.2
20260508090023 5 273 0.0 0.0 0.00 0.00 0.00 87 1015.1
20260508085521 5 273 0.0 0.0 0.00 0.00 0.00 87 1015.1
20260508085021 5 273 0.0 0.0 0.00 0.00 0.00 87 1015.1
20260508084521 5 273 0.0 0.0 0.00 0.00 0.00 86 1015.1
20260508084120 5 273 0.0 0.0 0.00 0.00 0.00 86 1015.1
20260508083550 5 273 0.0 0.0 0.00 0.00 0.00 86 1015.1
20260508083105 5 273 0.0 0.0 0.00 0.00 0.00 86 1015.1
20260508082549 5 273 0.0 0.0 0.00 0.00 0.00 86 1015.0
20260508082049 5 273 0.0 0.0 0.00 0.00 0.00 85 1015.0
20260508081556 5 273 0.0 0.0 0.00 0.00 0.00 85 1014.9
20260508081050 5 273 0.0 0.0 0.00 0.00 0.00 84 1015.0
20260508080545 5 273 0.0 0.0 0.00 0.00 0.00 84 1015.0
20260508080044 5 273 0.0 0.0 0.00 0.00 0.00 84 1015.0
20260508075544 5 273 0.0 0.0 0.00 0.00 0.00 84 1015.0
20260508075044 5 273 0.0 0.0 0.00 0.00 0.00 84 1015.0
20260508074545 6 273 0.0 0.0 0.00 0.00 0.00 84 1015.0
20260508074043 6 273 0.0 0.0 0.00 0.00 0.00 84 1015.0
20260508073543 6 273 0.0 0.0 0.00 0.00 0.00 84 1015.0
20260508073043 6 319 0.0 0.0 0.00 0.00 0.00 84 1015.0
20260508072542 6 319 0.0 0.0 0.00 0.00 0.00 84 1015.0
20260508072042 6 319 0.0 0.0 0.00 0.00 0.00 84 1015.0
20260508071542 6 319 0.0 0.0 0.00 0.00 0.00 84 1014.9
20260508071041 6 319 0.0 0.0 0.00 0.00 0.00 84 1014.9
20260508070510 6 319 0.0 0.0 0.00 0.00 0.00 83 1014.9
20260508070019 6 319 0.0 0.0 0.00 0.00 0.00 83 1014.9
20260508065510 6 319 0.0 0.0 0.00 0.00 0.00 83 1014.8
20260508065009 6 319 0.0 0.0 0.00 0.00 0.00 83 1014.8
20260508064509 6 319 0.0 0.0 0.00 0.00 0.00 83 1014.9
20260508064013 6 319 0.0 0.0 0.00 0.00 0.00 83 1014.9
20260508063541 6 319 0.0 0.0 0.00 0.00 0.00 82 1015.0
20260508063041 6 319 0.0 0.0 0.00 0.00 0.00 82 1015.0
20260508062539 6 319 0.0 0.0 0.00 0.00 0.00 82 1015.0
20260508062039 6 319 0.0 0.0 0.00 0.00 0.00 82 1015.1
20260508061544 6 319 0.0 0.0 0.00 0.00 0.00 82 1015.1
20260508061039 6 319 0.0 0.0 0.00 0.00 0.00 81 1015.1
20260508060535 6 319 0.0 0.0 0.00 0.00 0.00 81 1015.1
20260508060035 6 319 0.0 0.0 0.00 0.00 0.00 81 1015.1
20260508055533 6 319 0.0 0.0 0.00 0.00 0.00 81 1015.1
20260508055033 6 319 0.0 0.0 0.00 0.00 0.00 80 1015.1
20260508054532 6 319 0.0 0.0 0.00 0.00 0.00 80 1015.0
20260508054031 7 319 0.0 0.0 0.00 0.00 0.00 79 1015.1
20260508053531 7 319 0.0 0.0 0.00 0.00 0.00 79 1015.1
20260508053030 7 319 0.0 0.0 0.00 0.00 0.00 79 1015.0
20260508052530 7 319 0.0 0.0 0.00 0.00 0.00 79 1015.0
20260508052029 7 319 0.0 0.0 0.00 0.00 0.00 79 1014.9
20260508051528 7 322 0.0 0.0 0.00 0.00 0.00 77 1014.9
20260508051027 7 323 0.0 0.0 0.00 0.00 0.00 77 1014.9
20260508050527 7 323 0.0 0.0 0.00 0.00 0.00 77 1014.9
20260508050023 7 323 0.0 0.0 0.00 0.00 0.00 76 1014.8
20260508045522 8 323 0.0 0.0 0.00 0.00 0.00 76 1014.9
20260508045021 8 340 0.0 0.0 0.00 0.00 0.00 76 1014.9
20260508044521 8 340 0.0 0.0 0.00 0.00 0.00 75 1014.9
20260508044021 8 340 0.0 0.0 0.00 0.00 0.00 74 1015.0
20260508043520 8 340 0.0 0.0 0.00 0.00 0.00 74 1015.0
20260508043036 8 340 0.0 0.0 0.00 0.00 0.00 74 1015.0
20260508042519 8 340 0.0 0.0 0.00 0.00 0.00 74 1015.0
20260508042017 8 340 0.0 0.0 0.00 0.00 0.00 75 1014.9
20260508041518 8 340 0.0 0.0 0.00 0.00 0.00 75 1014.9
20260508041017 8 340 0.0 0.0 0.00 0.00 0.00 74 1014.9
20260508040513 8 340 0.0 1.6 0.00 0.00 0.00 74 1014.9
20260508040020 8 340 0.0 1.6 0.00 0.00 0.00 73 1014.9
20260508035514 9 340 0.0 0.0 0.00 0.00 0.00 73 1014.9
20260508035012 9 340 0.0 6.4 0.00 0.00 0.00 73 1014.9
20260508034514 9 340 0.0 6.4 0.00 0.00 0.00 72 1015.0
20260508034014 9 341 1.6 4.8 0.00 0.00 0.00 72 1014.9
20260508033514 9 341 3.2 4.8 0.00 0.00 0.00 70 1014.9
20260508033011 10 42 1.6 3.2 0.00 0.00 0.00 68 1014.9
20260508032511 10 285 0.0 1.6 0.00 0.00 0.00 67 1015.0
20260508032011 10 285 0.0 1.6 0.00 0.00 0.00 66 1015.0
20260508031518 10 285 0.0 1.6 0.00 0.00 0.00 66 1015.0
20260508031010 10 285 0.0 0.0 0.00 0.00 0.00 66 1015.0
20260508030511 10 285 0.0 0.0 0.00 0.00 0.00 66 1015.0
20260508030007 10 285 0.0 6.4 0.00 0.00 0.00 66 1014.9
20260508025508 10 285 1.6 8.0 0.00 0.00 0.00 65 1014.9
20260508025006 11 286 1.6 8.0 0.00 0.00 0.00 63 1014.8
20260508024506 11 284 1.6 8.0 0.00 0.00 0.00 62 1014.8
20260508024005 11 279 0.0 3.2 0.00 0.00 0.00 60 1014.7
20260508023505 11 279 0.0 3.2 0.00 0.00 0.00 59 1014.7
20260508023003 11 292 1.6 8.0 0.00 0.00 0.00 58 1014.6
20260508022502 11 292 3.2 8.0 0.00 0.00 0.00 57 1014.5
20260508022002 11 280 1.6 8.0 0.00 0.00 0.00 56 1014.5
20260508021502 11 277 1.6 6.4 0.00 0.00 0.00 55 1014.4
20260508021002 12 278 1.6 4.8 0.00 0.00 0.00 55 1014.3
20260508020502 12 280 1.6 6.4 0.00 0.00 0.00 54 1014.3
20260508020058 12 298 1.6 6.4 0.00 0.00 0.00 54 1014.3
20260508015558 12 300 1.6 3.2 0.00 0.00 0.00 53 1014.3
20260508015059 12 300 1.6 3.2 0.00 0.00 0.00 53 1014.2
20260508014558 12 301 1.6 6.4 0.00 0.00 0.00 53 1014.1
20260508014058 13 300 1.6 4.8 0.00 0.00 0.00 52 1014.0
20260508013557 13 300 0.0 6.4 0.00 0.00 0.00 51 1013.9
20260508013105 13 302 0.0 6.4 0.00 0.00 0.00 51 1013.8
20260508012556 13 303 1.6 8.0 0.00 0.00 0.00 50 1013.8
20260508012057 13 303 4.8 9.7 0.00 0.00 0.00 48 1013.6
20260508011557 13 308 6.4 9.7 0.00 0.00 0.00 46 1013.5
20260508011057 14 312 3.2 8.0 0.00 0.00 0.00 45 1013.5
20260508010557 14 309 4.8 9.7 0.00 0.00 0.00 44 1013.4
20260508010055 14 306 4.8 9.7 0.00 0.00 0.00 44 1013.3
20260508005555 15 302 6.4 9.7 0.00 0.00 0.00 43 1013.3
20260508005055 15 323 4.8 12.9 0.00 0.00 0.00 43 1013.3
20260508004555 15 323 8.0 12.9 0.00 0.00 0.00 42 1013.3
20260508004055 15 295 8.0 12.9 0.00 0.00 0.00 40 1013.3
20260508003554 15 298 3.2 12.9 0.00 0.00 0.00 40 1013.2
20260508003054 15 299 6.4 12.9 0.00 0.00 0.00 39 1013.1
20260508002553 15 272 4.8 12.9 0.00 0.00 0.00 38 1013.0
20260508002053 16 311 4.8 14.5 0.00 0.00 0.00 37 1013.1
20260508001553 16 311 8.0 16.1 0.00 0.00 0.00 37 1012.9
20260508001052 16 313 9.7 16.1 0.00 0.00 0.00 36 1012.9
20260508000553 16 314 6.4 20.9 0.00 0.00 0.00 36 1012.8
20260508000041 16 333 11.3 22.5 0.00 0.00 0.00 35 1012.9
20260507235542 16 311 12.9 22.5 0.00 0.00 0.00 35 1012.7
20260507235041 16 315 12.9 19.3 0.00 0.00 0.00 34 1012.6
20260507234543 16 307 9.7 22.5 0.00 0.00 0.00 35 1012.7
20260507234040 17 318 14.5 24.1 0.00 0.00 0.00 34 1012.6
20260507233541 17 319 12.9 24.1 0.00 0.00 0.00 34 1012.5
20260507233041 17 329 9.7 16.1 0.00 0.00 0.00 34 1012.5
20260507232544 17 330 6.4 19.3 0.00 0.00 0.00 34 1012.5
20260507232040 17 313 12.9 25.7 0.00 0.00 0.00 33 1012.4
20260507231542 17 319 12.9 25.7 0.00 0.00 0.00 32 1012.4
20260507231040 17 311 12.9 24.1 0.00 0.00 0.00 32 1012.3
20260507230543 17 327 14.5 20.9 0.00 0.00 0.00 32 1012.4
20260507230041 17 289 14.5 19.3 0.00 0.00 0.00 32 1012.4
20260507225540 17 311 12.9 22.5 0.00 0.00 0.00 32 1012.4
20260507225040 17 309 12.9 32.2 0.00 0.00 0.00 33 1012.4
20260507224540 18 306 16.1 32.2 0.00 0.00 0.00 32 1012.4
20260507224039 18 329 14.5 22.5 0.00 0.00 0.00 33 1012.4
20260507223543 18 302 12.9 25.7 0.00 0.00 0.00 33 1012.3
20260507223040 18 274 16.1 25.7 0.00 0.00 0.00 32 1012.3
20260507222541 18 227 12.9 20.9 0.00 0.00 0.00 32 1012.3
20260507222039 18 290 12.9 20.9 0.00 0.00 0.00 32 1012.3
20260507221538 18 281 14.5 20.9 0.00 0.00 0.00 32 1012.2
20260507221038 18 310 9.7 17.7 0.00 0.00 0.00 33 1012.2
20260507220539 18 309 12.9 25.7 0.00 0.00 0.00 35 1012.1
20260507220040 18 355 12.9 25.7 0.00 0.00 0.00 35 1012.1
20260507215540 18 315 14.5 24.1 0.00 0.00 0.00 35 1012.0
20260507215038 18 292 12.9 30.6 0.00 0.00 0.00 34 1011.9
20260507214538 18 294 14.5 30.6 0.00 0.00 0.00 34 1012.0
20260507214039 18 329 9.7 29.0 0.00 0.00 0.00 35 1011.8
20260507213537 19 294 11.3 29.0 0.00 0.00 0.00 35 1011.9
20260507213040 -17 0.0 0.0 0.00 0.00 0.00 1011.8
20260507212536 -17 0.0 0.0 0.00 0.00 0.00 1011.7
20260507212034 -17 0.0 0.0 0.00 0.00 0.00 1011.8
20260507211532 19 0.0 0.0 0.00 0.00 0.00 36 1011.6
20260507211031 19 315 16.1 29.0 0.00 0.00 0.00 36 1011.7
20260507210533 19 315 16.1 29.0 0.00 0.00 0.00 36 1011.7
20260507210039 19 311 14.5 29.0 0.00 0.00 0.00 37 1011.7
20260507205538 18 340 12.9 25.7 0.00 0.00 0.00 38 1011.6
20260507205040 18 298 11.3 32.2 0.00 0.00 0.00 38 1011.5
20260507204538 18 355 16.1 32.2 0.00 0.00 0.00 38 1011.5
20260507204037 18 345 16.1 29.0 0.00 0.00 0.00 38 1011.5
20260507203537 18 5 11.3 24.1 0.00 0.00 0.00 39 1011.5
20260507203036 18 343 12.9 30.6 0.00 0.00 0.00 38 1011.4
20260507202536 18 300 12.9 30.6 0.00 0.00 0.00 38 1011.5
20260507202036 19 291 11.3 22.5 0.00 0.00 0.00 37 1011.4
20260507201539 19 341 12.9 22.5 0.00 0.00 0.00 37 1011.4
20260507201035 19 324 9.7 20.9 0.00 0.00 0.00 38 1011.5
20260507200537 19 300 9.7 24.1 0.00 0.00 0.00 38 1011.5
20260507200043 19 285 12.9 24.1 0.00 0.00 0.00 38 1011.5
20260507200038 19 5 14.5 24.1 0.00 0.00 0.00 38 1011.5
20260507195535 19 304 12.9 25.7 0.00 0.00 0.00 37 1011.5
20260507195032 19 259 11.3 25.7 0.00 0.00 0.00 36 1011.6
20260507194542 19 300 9.7 24.1 0.00 0.00 0.00 37 1011.6
20260507194031 20 259 11.3 24.1 0.00 0.00 0.00 36 1011.5
20260507193531 19 283 12.9 24.1 0.00 0.00 0.00 37 1011.5
20260507193032 19 221 11.3 20.9 0.00 0.00 0.00 36 1011.5
20260507192530 19 262 6.4 20.9 0.00 0.00 0.00 38 1011.7
20260507192028 18 306 11.3 22.5 0.00 0.00 0.00 39 1011.7
20260507191533 18 292 11.3 22.5 0.00 0.00 0.00 39 1011.7
20260507191028 18 318 9.7 19.3 0.00 0.00 0.00 41 1011.7
20260507190527 17 311 9.7 22.5 0.00 0.00 0.00 42 1011.9
20260507190029 17 323 11.3 22.5 0.00 0.00 0.00 42 1012.0
20260507185523 17 294 6.4 19.3 0.00 0.00 0.00 42 1012.1
20260507185023 18 237 9.7 22.5 0.00 0.00 0.00 41 1012.2
20260507184523 18 281 14.5 24.1 0.00 0.00 0.00 43 1012.2
20260507184024 18 355 9.7 19.3 0.00 0.00 0.00 41 1012.1
20260507183522 18 341 9.7 19.3 0.00 0.00 0.00 42 1012.3
20260507183034 18 288 9.7 20.9 0.00 0.00 0.00 43 1012.3
20260507182521 18 308 11.3 24.1 0.00 0.00 0.00 43 1012.4
20260507182021 18 277 14.5 24.1 0.00 0.00 0.00 42 1012.5
20260507181520 19 298 9.7 19.3 0.00 0.00 0.00 41 1012.4
20260507181020 19 312 11.3 17.7 0.00 0.00 0.00 42 1012.4
20260507180520 18 255 8.0 20.9 0.00 0.00 0.00 43 1012.4
20260507180019 18 278 12.9 20.9 0.00 0.00 0.00 42 1012.4
20260507175517 18 278 9.7 29.0 0.00 0.00 0.00 43 1012.5
20260507175015 18 267 8.0 29.0 0.00 0.00 0.00 42 1012.5
20260507174515 18 292 12.9 25.7 0.00 0.00 0.00 42 1012.6
20260507174015 18 314 11.3 24.1 0.00 0.00 0.00 42 1012.7
20260507173514 18 248 12.9 24.1 0.00 0.00 0.00 42 1012.7
20260507173014 17 277 8.0 20.9 0.00 0.00 0.00 43 1012.8
20260507172514 17 250 8.0 19.3 0.00 0.00 0.00 43 1012.9
20260507172013 18 355 14.5 19.3 0.00 0.00 0.00 40 1012.8
20260507171514 18 241 4.8 17.7 0.00 0.00 0.00 42 1012.8
20260507171011 18 227 11.3 19.3 0.00 0.00 0.00 42 1012.9
20260507170510 18 291 8.0 25.7 0.00 0.00 0.00 43 1013.0
20260507170009 18 290 14.5 25.7 0.00 0.00 0.00 44 1013.0
20260507165505 18 304 8.0 24.1 0.00 0.00 0.00 44 1013.1
20260507165005 17 249 12.9 29.0 0.00 0.00 0.00 45 1013.2
20260507164507 17 286 12.9 22.5 0.00 0.00 0.00 46 1013.1
20260507164004 17 327 9.7 17.7 0.00 0.00 0.00 47 1013.2
20260507163506 17 319 11.3 19.3 0.00 0.00 0.00 46 1013.1
20260507163003 17 253 8.0 20.9 0.00 0.00 0.00 46 1013.2
20260507162502 17 283 9.7 17.7 0.00 0.00 0.00 46 1013.2
20260507162004 17 315 9.7 17.7 0.00 0.00 0.00 47 1013.3
20260507161501 17 324 6.4 19.3 0.00 0.00 0.00 48 1013.3
20260507161001 17 324 11.3 19.3 0.00 0.00 0.00 49 1013.4
20260507160504 17 289 11.3 19.3 0.00 0.00 0.00 49 1013.4
20260507160003 17 282 9.7 16.1 0.00 0.00 0.00 49 1013.4
20260507155559 17 242 9.7 16.1 0.00 0.00 0.00 49 1013.4
20260507155028 17 301 8.0 16.1 0.00 0.00 0.00 50 1013.4
20260507154529 17 256 9.7 17.7 0.00 0.00 0.00 49 1013.4
20260507154028 17 311 4.8 17.7 0.00 0.00 0.00 50 1013.5
20260507153527 17 346 12.9 16.1 0.00 0.00 0.00 50 1013.5
20260507153027 17 333 3.2 14.5 0.00 0.00 0.00 50 1013.5
20260507152525 17 229 8.0 17.7 0.00 0.00 0.00 51 1013.5
20260507152021 16 310 9.7 17.7 0.00 0.00 0.00 52 1013.5